owner,sensor,date,latitude,longitude,vertical_datum,wind_speed,wind_to_direction,wind_speed_of_gust,qcFlag 
TABS,ioos:station:wmo:42043:1,2014-01-15T03:00:00Z,28.9818,-94.9186,4.0,2.122498528,169.9609791,2.48,'11111222,11111222,11111222' 
TABS,ioos:station:wmo:42043:1,2014-01-15T03:30:00Z,28.9818,-94.9186,4.0,1.643471935,172.6590018,1.85,'11111222,11111222,11111222' 
TABS,ioos:station:wmo:42043:1,2014-01-15T04:00:00Z,28.9818,-94.9186,4.0,1.640274367,178.9522363,1.83,'11111222,11111222,11111222' 
TABS,ioos:station:wmo:42043:1,2014-01-15T04:30:00Z,28.9818,-94.9186,4.0,1.565407295,228.366558,1.9,'11111222,11111222,11111222' 
TABS,ioos:station:wmo:42043:1,2014-01-15T05:00:00Z,28.9818,-94.9186,4.0,2.066422029,277.228173,2.35,'11111222,11111222,11111222' 
TABS,ioos:station:wmo:42043:1,2014-01-15T05:30:00Z,28.9818,-94.9186,4.0,3.674846936,275.1520697,4.56,'11111222,11111222,11111222' 
TABS,ioos:station:wmo:42043:1,2014-01-15T06:00:00Z,28.9818,-94.9186,4.0,3.043813398,281.7529048,3.97,'11111222,11111222,11111222' 
TABS,ioos:station:wmo:42043:1,2014-01-15T06:30:00Z,28.9818,-94.9186,4.0,5.110714236,342.3448506,6.93,'11111222,11111222,11111222' 
TABS,ioos:station:wmo:42043:1,2014-01-15T07:00:00Z,28.9818,-94.9186,4.0,12.16713606,11.08805008,16.15,'11111222,11111222,11111222' 
TABS,ioos:station:wmo:42043:1,2014-01-15T07:30:00Z,28.9818,-94.9186,4.0,11.10315721,7.816067238,13.46,'11111222,11111222,11111222' 
TABS,ioos:station:wmo:42043:1,2014-01-15T08:00:00Z,28.9818,-94.9186,4.0,9.901161548,2.720589198,12.07,'11111222,11111222,11111222' 
TABS,ioos:station:wmo:42043:1,2014-01-15T08:30:00Z,28.9818,-94.9186,4.0,9.200657585,0.684813531,11.31,'11111222,11111222,11111222' 
TABS,ioos:station:wmo:42043:1,2014-01-15T09:00:00Z,28.9818,-94.9186,4.0,9.643033755,354.5848198,12.58,'11111222,11111222,11111222' 
TABS,ioos:station:wmo:42043:1,2014-01-15T09:30:00Z,28.9818,-94.9186,4.0,9.084365691,352.6635698,12.72,'11111222,11111222,11111222' 
TABS,ioos:station:wmo:42043:1,2014-01-15T10:00:00Z,28.9818,-94.9186,4.0,10.23080153,357.3667178,13.07,'11111222,11111222,11111222' 
TABS,ioos:station:wmo:42043:1,2014-01-15T10:30:00Z,28.9818,-94.9186,4.0,10.89653156,356.8433005,13.79,'11111222,11111222,11111222' 
TABS,ioos:station:wmo:42043:1,2014-01-15T11:00:00Z,28.9818,-94.9186,4.0,9.58565595,353.2899684,13.66,'11111222,11111222,11111222' 
TABS,ioos:station:wmo:42043:1,2014-01-15T11:30:00Z,28.9818,-94.9186,4.0,9.077912756,356.3998413,12.19,'11111222,11111222,11111222' 
TABS,ioos:station:wmo:42043:1,2014-01-15T12:00:00Z,28.9818,-94.9186,4.0,10.50080473,0.709127957,13.94,'11111222,11111222,11111222' 
TABS,ioos:station:wmo:42043:1,2014-01-15T12:30:00Z,28.9818,-94.9186,4.0,11.28686405,8.251915798,14.55,'11111222,11111222,11111222' 
TABS,ioos:station:wmo:42043:1,2014-01-15T13:00:00Z,28.9818,-94.9186,4.0,10.17467936,9.332482631,13.42,'11111222,11111222,11111222' 
TABS,ioos:station:wmo:42043:1,2014-01-15T13:30:00Z,28.9818,-94.9186,4.0,9.63911303,11.36798206,12.99,'11111222,11111222,11111222' 
TABS,ioos:station:wmo:42043:1,2014-01-15T14:00:00Z,28.9818,-94.9186,4.0,7.90013291,2.902027012,9.84,'11111222,11111222,11111222' 
TABS,ioos:station:wmo:42043:1,2014-01-15T14:30:00Z,28.9818,-94.9186,4.0,7.302670744,354.5780667,9.03,'11111222,11111222,11111222' 
TABS,ioos:station:wmo:42043:1,2014-01-15T15:00:00Z,28.9818,-94.9186,4.0,7.038756993,351.4207441,9.03,'11111222,11111222,11111222' 
TABS,ioos:station:wmo:42043:1,2014-01-15T15:30:00Z,28.9818,-94.9186,4.0,6.383831138,356.2275148,8.32,'11111222,11111222,11111222' 
TABS,ioos:station:wmo:42043:1,2014-01-15T16:00:00Z,28.9818,-94.9186,4.0,5.664274005,357.7738709,7.66,'11111222,11111222,11111222' 
TABS,ioos:station:wmo:42043:1,2014-01-15T16:30:00Z,28.9818,-94.9186,4.0,5.450036697,359.7895312,7.01,'11111222,11144222,11111222' 
TABS,ioos:station:wmo:42043:1,2014-01-15T17:00:00Z,28.9818,-94.9186,4.0,4.973047355,355.848514,6.39,'11111222,11111222,11111222' 
TABS,ioos:station:wmo:42043:1,2014-01-15T17:30:00Z,28.9818,-94.9186,4.0,5.310037665,359.7839878,6.83,'11111222,11144222,11111222' 
TABS,ioos:station:wmo:42043:1,2014-01-15T18:00:00Z,28.9818,-94.9186,4.0,3.182011942,17.18190866,4.45,'11111222,11111222,11111222' 
TABS,ioos:station:wmo:42043:1,2014-01-15T18:30:00Z,28.9818,-94.9186,4.0,2.921711827,1.961202622,5.66,'11111222,11111222,11111222' 
TABS,ioos:station:wmo:42043:1,2014-01-15T19:00:00Z,28.9818,-94.9186,4.0,2.403081355,22.50955888,3.76,'11111222,11111222,11111222' 
TABS,ioos:station:wmo:42043:1,2014-01-15T19:30:00Z,28.9818,-94.9186,4.0,4.909032491,342.8198712,7.54,'11111222,11111222,11111222' 
TABS,ioos:station:wmo:42043:1,2014-01-15T20:00:00Z,28.9818,-94.9186,4.0,6.266258852,313.836035,7.7,'11111222,11111222,11111222' 
TABS,ioos:station:wmo:42043:1,2014-01-15T20:30:00Z,28.9818,-94.9186,4.0,6.260239612,326.9951834,7.91,'11111222,11111222,11111222' 
TABS,ioos:station:wmo:42043:1,2014-01-15T21:00:00Z,28.9818,-94.9186,4.0,6.160470761,327.0578779,7.58,'11111222,11111222,11111222' 
TABS,ioos:station:wmo:42043:1,2014-01-15T21:30:00Z,28.9818,-94.9186,4.0,6.501115289,326.480905,7.94,'11111222,11111222,11111222' 
TABS,ioos:station:wmo:42043:1,2014-01-15T22:00:00Z,28.9818,-94.9186,4.0,5.978360979,321.5196813,7.06,'11111222,11111222,11111222' 
TABS,ioos:station:wmo:42043:1,2014-01-15T22:30:00Z,28.9818,-94.9186,4.0,4.242004243,323.0489377,5.45,'11111222,11111222,11111222' 
TABS,ioos:station:wmo:42043:1,2014-01-15T23:00:00Z,28.9818,-94.9186,4.0,3.691205765,315.4389333,4.42,'11111222,11111222,11111222' 
TABS,ioos:station:wmo:42043:1,2014-01-15T23:30:00Z,28.9818,-94.9186,4.0,4.176984558,325.9293572,5.21,'11111222,11111222,11111222' 
TABS,ioos:station:wmo:42043:1,2014-01-16T00:00:00Z,28.9818,-94.9186,4.0,3.059297305,325.7903622,3.63,'11111222,11111222,11111222' 
TABS,ioos:station:wmo:42043:1,2014-01-16T00:30:00Z,28.9818,-94.9186,4.0,2.92071909,325.6024831,3.68,'11111222,11111222,11111222' 
TABS,ioos:station:wmo:42043:1,2014-01-16T01:00:00Z,28.9818,-94.9186,4.0,3.371364709,330.6976506,4.11,'11111222,11111222,11111222' 
TABS,ioos:station:wmo:42043:1,2014-01-16T01:30:00Z,28.9818,-94.9186,4.0,3.245489177,318.747531,3.96,'11111222,11111222,11111222' 
TABS,ioos:station:wmo:42043:1,2014-01-16T02:00:00Z,28.9818,-94.9186,4.0,2.7291757,303.3406294,3.39,'11111222,11111222,11111222' 
TABS,ioos:station:wmo:42043:1,2014-01-16T02:30:00Z,28.9818,-94.9186,4.0,2.155643755,297.0404607,2.99,'11111222,11111222,11111222' 
TABS,ioos:station:wmo:42043:1,2014-01-16T03:00:00Z,28.9818,-94.9186,4.0,1.840923681,293.3620041,2.28,'11111222,11111222,11111222' 
TABS,ioos:station:wmo:42043:1,2014-01-16T03:30:00Z,28.9818,-94.9186,4.0,1.809364529,287.0328447,2.19,'11111222,11111222,11111222' 
TABS,ioos:station:wmo:42043:1,2014-01-16T04:00:00Z,28.9818,-94.9186,4.0,1.574706322,298.0296154,1.99,'11111222,11111222,11111222' 
TABS,ioos:station:wmo:42043:1,2014-01-16T04:30:00Z,28.9818,-94.9186,4.0,1.274754878,265.0497393,1.66,'11111222,11111222,11111222' 
TABS,ioos:station:wmo:42043:1,2014-01-16T05:00:00Z,28.9818,-94.9186,4.0,1.357718675,224.4032972,1.79,'11111222,11111222,11111222' 
TABS,ioos:station:wmo:42043:1,2014-01-16T05:30:00Z,28.9818,-94.9186,4.0,0.827345152,206.5651995,1.3,'11111222,11111222,11111222' 
TABS,ioos:station:wmo:42043:1,2014-01-16T06:00:00Z,28.9818,-94.9186,4.0,2.026079959,201.1188851,2.49,'11111222,11111222,11111222' 
TABS,ioos:station:wmo:42043:1,2014-01-16T06:30:00Z,28.9818,-94.9186,4.0,2.144784371,201.9007821,2.65,'11111222,11111222,11111222' 
TABS,ioos:station:wmo:42043:1,2014-01-16T07:00:00Z,28.9818,-94.9186,4.0,2.682685222,177.4364462,3.19,'11111222,11111222,11111222' 
TABS,ioos:station:wmo:42043:1,2014-01-16T07:30:00Z,28.9818,-94.9186,4.0,2.596497641,149.1879015,3.43,'11111222,11111222,11111222' 
TABS,ioos:station:wmo:42043:1,2014-01-16T08:00:00Z,28.9818,-94.9186,4.0,3.211245864,154.1533743,3.92,'11111222,11111222,11111222' 
TABS,ioos:station:wmo:42043:1,2014-01-16T08:30:00Z,28.9818,-94.9186,4.0,3.470619541,172.3837662,4.36,'11111222,11111222,11111222' 
TABS,ioos:station:wmo:42043:1,2014-01-16T09:00:00Z,28.9818,-94.9186,4.0,2.893596378,206.0338795,3.69,'11111222,11111222,11111222' 
TABS,ioos:station:wmo:42043:1,2014-01-16T09:30:00Z,28.9818,-94.9186,4.0,2.550960603,181.5726372,3.08,'11111222,11111222,11111222' 
TABS,ioos:station:wmo:42043:1,2014-01-16T10:00:00Z,28.9818,-94.9186,4.0,3.937067437,198.2050144,4.92,'11111222,11111222,11111222' 
TABS,ioos:station:wmo:42043:1,2014-01-16T10:30:00Z,28.9818,-94.9186,4.0,3.730335106,191.9125722,4.68,'11111222,11111222,11111222' 
TABS,ioos:station:wmo:42043:1,2014-01-16T11:00:00Z,28.9818,-94.9186,4.0,3.127714821,195.7694302,4.09,'11111222,11111222,11111222' 
TABS,ioos:station:wmo:42043:1,2014-01-16T11:30:00Z,28.9818,-94.9186,4.0,3.426149442,191.2773199,4.3,'11111222,11111222,11111222' 
TABS,ioos:station:wmo:42043:1,2014-01-16T12:00:00Z,28.9818,-94.9186,4.0,3.465862086,198.3305622,4.66,'11111222,11111222,11111222' 
TABS,ioos:station:wmo:42043:1,2014-01-16T12:30:00Z,28.9818,-94.9186,4.0,3.127714821,195.7694302,3.93,'11111222,11111222,11111222' 
TABS,ioos:station:wmo:42043:1,2014-01-16T13:00:00Z,28.9818,-94.9186,4.0,3.865048512,189.6818463,4.73,'11111222,11111222,11111222' 
TABS,ioos:station:wmo:42043:1,2014-01-16T13:30:00Z,28.9818,-94.9186,4.0,3.655748897,188.0194706,4.5,'11111222,11111222,11111222' 
TABS,ioos:station:wmo:42043:1,2014-01-16T14:00:00Z,28.9818,-94.9186,4.0,3.545955442,191.8805189,4.65,'11111222,11111222,11111222' 
TABS,ioos:station:wmo:42043:1,2014-01-16T14:30:00Z,28.9818,-94.9186,4.0,3.50258476,193.2032329,4.32,'11111222,11111222,11111222' 
TABS,ioos:station:wmo:42043:1,2014-01-16T15:00:00Z,28.9818,-94.9186,4.0,2.871410803,198.0565161,3.49,'11111222,11111222,11111222' 
TABS,ioos:station:wmo:42043:1,2014-01-16T15:30:00Z,28.9818,-94.9186,4.0,3.502970168,195.2266026,4.53,'11111222,11111222,11111222' 
TABS,ioos:station:wmo:42043:1,2014-01-16T16:00:00Z,28.9818,-94.9186,4.0,3.50258476,193.2032329,4.62,'11111222,11111222,11111222' 
TABS,ioos:station:wmo:42043:1,2014-01-16T16:30:00Z,28.9818,-94.9186,4.0,4.094142157,193.5612311,5.12,'11111222,11111222,11111222' 
TABS,ioos:station:wmo:42043:1,2014-01-16T17:00:00Z,28.9818,-94.9186,4.0,4.011832499,194.7292005,5.05,'11111222,11111222,11111222' 
TABS,ioos:station:wmo:42043:1,2014-01-16T17:30:00Z,28.9818,-94.9186,4.0,2.743464962,194.9988569,3.66,'11111222,11111222,11111222' 
TABS,ioos:station:wmo:42043:1,2014-01-16T18:00:00Z,28.9818,-94.9186,4.0,2.4989998,199.8853291,3.15,'11111222,11111222,11111222' 
TABS,ioos:station:wmo:42043:1,2014-01-16T18:30:00Z,28.9818,-94.9186,4.0,1.705813589,213.0380818,2.41,'11111222,11111222,11111222' 
TABS,ioos:station:wmo:42043:1,2014-01-16T19:00:00Z,28.9818,-94.9186,4.0,1.792540097,215.4634918,2.29,'11111222,11111222,11111222' 
TABS,ioos:station:wmo:42043:1,2014-01-16T19:30:00Z,28.9818,-94.9186,4.0,1.123610253,253.9845978,1.6,'11111222,11111222,11111222' 
TABS,ioos:station:wmo:42043:1,2014-01-16T20:00:00Z,28.9818,-94.9186,4.0,1.406022759,217.1960249,2.04,'11111222,11111222,11111222' 
TABS,ioos:station:wmo:42043:1,2014-01-16T20:30:00Z,28.9818,-94.9186,4.0,0.449444101,212.2757793,1.07,'11111222,11111222,11111222' 
TABS,ioos:station:wmo:42043:1,2014-01-16T21:00:00Z,28.9818,-94.9186,4.0,0.126491106,198.4351162,0.75,'11111222,11111222,11111222' 
TABS,ioos:station:wmo:42043:1,2014-01-16T21:30:00Z,28.9818,-94.9186,4.0,1.019803903,11.30969557,1.5,'11111222,11111222,11111222' 
TABS,ioos:station:wmo:42043:1,2014-01-16T22:00:00Z,28.9818,-94.9186,4.0,1.381955137,62.8783391,1.98,'11111222,11111222,11111222' 
TABS,ioos:station:wmo:42043:1,2014-01-16T22:30:00Z,28.9818,-94.9186,4.0,0.552268051,264.8055832,0.92,'11111222,11111222,11111222' 
TABS,ioos:station:wmo:42043:1,2014-01-16T23:00:00Z,28.9818,-94.9186,4.0,1.78465683,154.4403051,2.41,'11111222,11111222,11111222' 
TABS,ioos:station:wmo:42043:1,2014-01-16T23:30:00Z,28.9818,-94.9186,4.0,2.398416144,163.5298205,2.94,'11111222,11111222,11111222' 
TABS,ioos:station:wmo:42043:1,2014-01-17T00:00:00Z,28.9818,-94.9186,4.0,2.114000946,183.5258174,2.74,'11111222,11111222,11111222' 
TABS,ioos:station:wmo:42043:1,2014-01-17T00:30:00Z,28.9818,-94.9186,4.0,2.11047388,174.2896307,2.59,'11111222,11111222,11111222' 
TABS,ioos:station:wmo:42043:1,2014-01-17T01:00:00Z,28.9818,-94.9186,4.0,2.221733557,171.9795394,2.69,'11111222,11111222,11111222' 
TABS,ioos:station:wmo:42043:1,2014-01-17T01:30:00Z,28.9818,-94.9186,4.0,1.958800653,163.6932432,2.41,'11111222,11111222,11111222' 
TABS,ioos:station:wmo:42043:1,2014-01-17T02:00:00Z,28.9818,-94.9186,4.0,1.306981255,170.7541193,1.85,'11111222,11111222,11111222' 
TABS,ioos:station:wmo:42043:1,2014-01-17T02:30:00Z,28.9818,-94.9186,4.0,2.018167486,163.001885,2.63,'11111222,11111222,11111222' 
TABS,ioos:station:wmo:42043:1,2014-01-17T03:00:00Z,28.9818,-94.9186,4.0,1.930025907,159.6874317,2.47,'11111222,11111222,11111222' 
TABS,ioos:station:wmo:42043:1,2014-01-17T03:30:00Z,28.9818,-94.9186,4.0,1.364734406,151.5573483,1.88,'11111222,11111222,11111222' 
TABS,ioos:station:wmo:42043:1,2014-01-17T04:00:00Z,28.9818,-94.9186,4.0,1.47732867,156.0377775,1.99,'11111222,11111222,11111222' 
TABS,ioos:station:wmo:42043:1,2014-01-17T04:30:00Z,28.9818,-94.9186,4.0,1.566045976,163.3010053,1.9,'11111222,11111222,11111222' 
TABS,ioos:station:wmo:42043:1,2014-01-17T05:00:00Z,28.9818,-94.9186,4.0,1.055461984,152.9496767,1.5,'11111222,11111222,11111222' 
TABS,ioos:station:wmo:42043:1,2014-01-17T05:30:00Z,28.9818,-94.9186,4.0,1.502697574,183.4338328,2.02,'11111222,11111222,11111222' 
TABS,ioos:station:wmo:42043:1,2014-01-17T06:00:00Z,28.9818,-94.9186,4.0,0.427200187,212.5741914,1.25,'11111222,11111222,11111222' 
TABS,ioos:station:wmo:42043:1,2014-01-17T06:30:00Z,28.9818,-94.9186,4.0,0.525547334,338.8057826,1.15,'11111222,11111222,11111222' 
TABS,ioos:station:wmo:42043:1,2014-01-17T07:00:00Z,28.9818,-94.9186,4.0,1.761817244,357.3972334,2.26,'11111222,11111222,11111222' 
TABS,ioos:station:wmo:42043:1,2014-01-17T07:30:00Z,28.9818,-94.9186,4.0,1.883215336,356.6512026,3.19,'11111222,11111222,11111222' 
TABS,ioos:station:wmo:42043:1,2014-01-17T08:00:00Z,28.9818,-94.9186,4.0,4.054442008,10.22877391,5.33,'11111222,11111222,11111222' 
TABS,ioos:station:wmo:42043:1,2014-01-17T08:30:00Z,28.9818,-94.9186,4.0,4.904049347,9.270016438,6.17,'11111222,11111222,11111222' 
TABS,ioos:station:wmo:42043:1,2014-01-17T09:00:00Z,28.9818,-94.9186,4.0,3.826708769,12.22000595,4.73,'11111222,11111222,11111222' 
TABS,ioos:station:wmo:42043:1,2014-01-17T09:30:00Z,28.9818,-94.9186,4.0,4.052678127,10.0896436,4.93,'11111222,11111222,11111222' 
TABS,ioos:station:wmo:42043:1,2014-01-17T10:00:00Z,28.9818,-94.9186,4.0,3.995059449,11.8441019,4.79,'11111222,11111222,11111222' 
TABS,ioos:station:wmo:42043:1,2014-01-17T10:30:00Z,28.9818,-94.9186,4.0,4.385076966,14.25782956,5.79,'11111222,11111222,11111222' 
TABS,ioos:station:wmo:42043:1,2014-01-17T11:00:00Z,28.9818,-94.9186,4.0,5.695261188,20.34384322,7.19,'11111222,11111222,11111222' 
TABS,ioos:station:wmo:42043:1,2014-01-17T11:30:00Z,28.9818,-94.9186,4.0,4.837933443,15.58725837,6.59,'11111222,11111222,11111222' 
TABS,ioos:station:wmo:42043:1,2014-01-17T12:00:00Z,28.9818,-94.9186,4.0,5.002799216,15.53612523,6.75,'11111222,11111222,11111222' 
TABS,ioos:station:wmo:42043:1,2014-01-17T12:30:00Z,28.9818,-94.9186,4.0,4.974836681,22.07917625,6.41,'11111222,11111222,11111222' 
TABS,ioos:station:wmo:42043:1,2014-01-17T13:00:00Z,28.9818,-94.9186,4.0,7.044728526,20.69857335,9.63,'11111222,11111222,11111222' 
TABS,ioos:station:wmo:42043:1,2014-01-17T13:30:00Z,28.9818,-94.9186,4.0,7.100739398,19.58300654,9.14,'11111222,11111222,11111222' 
TABS,ioos:station:wmo:42043:1,2014-01-17T14:00:00Z,28.9818,-94.9186,4.0,7.328471873,22.71582595,9.29,'11111222,11111222,11111222' 
TABS,ioos:station:wmo:42043:1,2014-01-17T14:30:00Z,28.9818,-94.9186,4.0,8.141038017,30.97554353,9.55,'11111222,11111222,11111222' 
TABS,ioos:station:wmo:42043:1,2014-01-17T15:00:00Z,28.9818,-94.9186,4.0,8.017611864,30.75512678,10.43,'11111222,11111222,11111222' 
TABS,ioos:station:wmo:42043:1,2014-01-17T15:30:00Z,28.9818,-94.9186,4.0,7.358763483,36.04425192,9.13,'11111222,11111222,11111222' 
TABS,ioos:station:wmo:42043:1,2014-01-17T16:00:00Z,28.9818,-94.9186,4.0,6.349622036,40.33673037,7.72,'11111222,11111222,11111222' 
TABS,ioos:station:wmo:42043:1,2014-01-17T16:30:00Z,28.9818,-94.9186,4.0,6.242315276,38.43015402,8.4,'11111222,11111222,11111222' 
TABS,ioos:station:wmo:42043:1,2014-01-17T17:00:00Z,28.9818,-94.9186,4.0,5.912512156,40.88478484,7.58,'11111222,11111222,11111222' 
TABS,ioos:station:wmo:42043:1,2014-01-17T17:30:00Z,28.9818,-94.9186,4.0,4.538546023,34.95035922,5.66,'11111222,11111222,11111222' 
TABS,ioos:station:wmo:42043:1,2014-01-17T18:00:00Z,28.9818,-94.9186,4.0,3.599736101,43.9867038,4.67,'11111222,11111222,11111222' 
TABS,ioos:station:wmo:42043:1,2014-01-17T18:30:00Z,28.9818,-94.9186,4.0,3.532888337,47.86780955,4.91,'11111222,11111222,11111222' 
TABS,ioos:station:wmo:42043:1,2014-01-17T19:00:00Z,28.9818,-94.9186,4.0,3.642471688,61.46450921,4.3,'11111222,11111222,11111222' 
TABS,ioos:station:wmo:42043:1,2014-01-17T19:30:00Z,28.9818,-94.9186,4.0,3.045472049,72.2191123,3.73,'11111222,11111222,11111222' 
TABS,ioos:station:wmo:42043:1,2014-01-17T20:00:00Z,28.9818,-94.9186,4.0,3.355741349,74.26529639,4.18,'11111222,11111222,11111222' 
TABS,ioos:station:wmo:42043:1,2014-01-17T20:30:00Z,28.9818,-94.9186,4.0,3.508518206,73.26909045,4.4,'11111222,11111222,11111222' 
TABS,ioos:station:wmo:42043:1,2014-01-17T21:00:00Z,28.9818,-94.9186,4.0,3.742525885,50.31171085,5.02,'11111222,11111222,11111222' 
TABS,ioos:station:wmo:42043:1,2014-01-17T21:30:00Z,28.9818,-94.9186,4.0,4.387824062,50.17738218,5.4,'11111222,11111222,11111222' 
TABS,ioos:station:wmo:42043:1,2014-01-17T22:00:00Z,28.9818,-94.9186,4.0,3.778306499,55.13187218,4.52,'11111222,11111222,11111222' 
TABS,ioos:station:wmo:42043:1,2014-01-17T22:30:00Z,28.9818,-94.9186,4.0,3.68571567,58.42270299,4.67,'11111222,11111222,11111222' 
TABS,ioos:station:wmo:42043:1,2014-01-17T23:00:00Z,28.9818,-94.9186,4.0,3.202577087,60.23257693,4.06,'11111222,11111222,11111222' 
TABS,ioos:station:wmo:42043:1,2014-01-17T23:30:00Z,28.9818,-94.9186,4.0,3.104094071,66.65562271,3.75,'11111222,11111222,11111222' 
TABS,ioos:station:wmo:42043:1,2014-01-18T00:00:00Z,28.9818,-94.9186,4.0,2.954471188,68.55833931,3.55,'11111222,11111222,11111222' 
TABS,ioos:station:wmo:42043:1,2014-01-18T00:30:00Z,28.9818,-94.9186,4.0,2.659360825,78.94319196,3.44,'11111222,11111222,11111222' 
TABS,ioos:station:wmo:42043:1,2014-01-18T01:00:00Z,28.9818,-94.9186,4.0,1.733666635,73.23706382,2.18,'11111222,11111222,11111222' 
TABS,ioos:station:wmo:42043:1,2014-01-18T01:30:00Z,28.9818,-94.9186,4.0,1.461095479,70.82061591,1.91,'11111222,11111222,11111222' 
TABS,ioos:station:wmo:42043:1,2014-01-18T02:00:00Z,28.9818,-94.9186,4.0,1.408580846,47.5891801,1.94,'11111222,11111222,11111222' 
TABS,ioos:station:wmo:42043:1,2014-01-18T02:30:00Z,28.9818,-94.9186,4.0,1.847836573,42.14823469,2.35,'11111222,11111222,11111222' 
TABS,ioos:station:wmo:42043:1,2014-01-18T03:00:00Z,28.9818,-94.9186,4.0,1.788323237,37.95898419,2.2,'11111222,11111222,11111222' 
TABS,ioos:station:wmo:42043:1,2014-01-18T03:30:00Z,28.9818,-94.9186,4.0,2.066349438,33.15144578,2.53,'11111222,11111222,11111222' 
TABS,ioos:station:wmo:42043:1,2014-01-18T04:00:00Z,28.9818,-94.9186,4.0,3.634074848,48.45778911,4.64,'11111222,11111222,11111222' 
TABS,ioos:station:wmo:42043:1,2014-01-18T04:30:00Z,28.9818,-94.9186,4.0,5.044769569,47.00782536,6.1,'11111222,11111222,11111222' 
TABS,ioos:station:wmo:42043:1,2014-01-18T05:00:00Z,28.9818,-94.9186,4.0,4.654299088,55.59257857,5.4,'11111222,11111222,11111222' 
TABS,ioos:station:wmo:42043:1,2014-01-18T05:30:00Z,28.9818,-94.9186,4.0,3.95701908,60.97317039,4.66,'11111222,11111222,11111222' 
TABS,ioos:station:wmo:42043:1,2014-01-18T06:00:00Z,28.9818,-94.9186,4.0,3.006659276,56.94383357,3.62,'11111222,11111222,11111222' 
TABS,ioos:station:wmo:42043:1,2014-01-18T06:30:00Z,28.9818,-94.9186,4.0,2.388179223,55.57763004,3.1,'11111222,11111222,11111222' 
TABS,ioos:station:wmo:42043:1,2014-01-18T07:00:00Z,28.9818,-94.9186,4.0,1.980706945,46.63625753,2.87,'11111222,11111222,11111222' 
TABS,ioos:station:wmo:42043:1,2014-01-18T07:30:00Z,28.9818,-94.9186,4.0,1.938066046,53.60278597,2.89,'11111222,11111222,11111222' 
TABS,ioos:station:wmo:42043:1,2014-01-18T08:00:00Z,28.9818,-94.9186,4.0,2.867908646,56.80828259,3.71,'11111222,11111222,11111222' 
TABS,ioos:station:wmo:42043:1,2014-01-18T08:30:00Z,28.9818,-94.9186,4.0,2.951694429,63.86863964,3.84,'11111222,11111222,11111222' 
TABS,ioos:station:wmo:42043:1,2014-01-18T09:00:00Z,28.9818,-94.9186,4.0,2.842692386,75.3278626,3.59,'11111222,11111222,11111222' 
TABS,ioos:station:wmo:42043:1,2014-01-18T09:30:00Z,28.9818,-94.9186,4.0,3.023970899,82.78057514,3.81,'11111222,11111222,11111222' 
TABS,ioos:station:wmo:42043:1,2014-01-18T10:00:00Z,28.9818,-94.9186,4.0,3.419488266,72.99544197,4.35,'11111222,11111222,11111222' 
TABS,ioos:station:wmo:42043:1,2014-01-18T10:30:00Z,28.9818,-94.9186,4.0,2.937839342,80.7937771,4.09,'11111222,11111222,11111222' 
TABS,ioos:station:wmo:42043:1,2014-01-18T11:00:00Z,28.9818,-94.9186,4.0,3.032375307,92.26837015,3.83,'11111222,11111222,11111222' 
TABS,ioos:station:wmo:42043:1,2014-01-18T11:30:00Z,28.9818,-94.9186,4.0,3.434719785,93.00443387,4.57,'11111222,11111222,11111222' 
TABS,ioos:station:wmo:42043:1,2014-01-18T12:00:00Z,28.9818,-94.9186,4.0,4.019763675,102.7920215,5.04,'11111222,11111222,11111222' 
TABS,ioos:station:wmo:42043:1,2014-01-18T12:30:00Z,28.9818,-94.9186,4.0,4.740516849,100.5755038,5.91,'11111222,11111222,11111222' 
TABS,ioos:station:wmo:42043:1,2014-01-18T13:00:00Z,28.9818,-94.9186,4.0,5.032941486,95.47311979,6.28,'11111222,11111222,11111222' 
TABS,ioos:station:wmo:42043:1,2014-01-18T13:30:00Z,28.9818,-94.9186,4.0,5.889626474,95.74972051,7.26,'11111222,11111222,11111222' 
TABS,ioos:station:wmo:42043:1,2014-01-18T14:00:00Z,28.9818,-94.9186,4.0,6.260071885,104.524998,7.42,'11111222,11111222,11111222' 
TABS,ioos:station:wmo:42043:1,2014-01-18T14:30:00Z,28.9818,-94.9186,4.0,6.323140043,109.7821997,7.62,'11111222,11111222,11111222' 
TABS,ioos:station:wmo:42043:1,2014-01-18T15:00:00Z,28.9818,-94.9186,4.0,6.990422019,109.7313871,7.89,'11111222,11111222,11111222' 
TABS,ioos:station:wmo:42043:1,2014-01-18T15:30:00Z,28.9818,-94.9186,4.0,6.454595262,115.4140932,8.36,'11111222,11111222,11111222' 
TABS,ioos:station:wmo:42043:1,2014-01-18T16:00:00Z,28.9818,-94.9186,4.0,5.733280039,124.4110716,7.12,'11111222,11111222,11111222' 
TABS,ioos:station:wmo:42043:1,2014-01-18T16:30:00Z,28.9818,-94.9186,4.0,5.343126426,140.6203573,6.72,'11111222,11111222,11111222' 
TABS,ioos:station:wmo:42043:1,2014-01-18T17:00:00Z,28.9818,-94.9186,4.0,4.61,145.5173723,5.99,'11111222,11111222,11111222' 
TABS,ioos:station:wmo:42043:1,2014-01-18T17:30:00Z,28.9818,-94.9186,4.0,5.066379378,143.8315741,6.36,'11111222,11111222,11111222' 
TABS,ioos:station:wmo:42043:1,2014-01-18T18:00:00Z,28.9818,-94.9186,4.0,4.601847455,153.2681792,5.78,'11111222,11111222,11111222' 
TABS,ioos:station:wmo:42043:1,2014-01-18T18:30:00Z,28.9818,-94.9186,4.0,4.380159814,149.3954607,5.72,'11111222,11111222,11111222' 
TABS,ioos:station:wmo:42043:1,2014-01-18T19:00:00Z,28.9818,-94.9186,4.0,4.052505398,144.0352896,5.42,'11111222,11111222,11111222' 
TABS,ioos:station:wmo:42043:1,2014-01-18T19:30:00Z,28.9818,-94.9186,4.0,4.354698612,144.1567156,5.69,'11111222,11111222,11111222' 
TABS,ioos:station:wmo:42043:1,2014-01-18T20:00:00Z,28.9818,-94.9186,4.0,4.394360022,145.0082721,5.43,'11111222,11111222,11111222' 
TABS,ioos:station:wmo:42043:1,2014-01-18T20:30:00Z,28.9818,-94.9186,4.0,4.288787707,139.0657318,5.37,'11111222,11111222,11111222' 
TABS,ioos:station:wmo:42043:1,2014-01-18T21:00:00Z,28.9818,-94.9186,4.0,3.288054136,135.1235319,4.85,'11111222,11111222,11111222' 
TABS,ioos:station:wmo:42043:1,2014-01-18T21:30:00Z,28.9818,-94.9186,4.0,2.439200689,159.8566029,3.19,'11111222,11111222,11111222' 